Location: Arthez
(43.0833°N, 0.2500°W)
Time: 12:14:28
(UTC+00:00)

Cosmos 304 Rocket - Pass Details

Date: 30 May 2022
Orbit: 679 x 686 km, 74.0° (Epoch: 01 July)

Event Time Altitude Azimuth Distance (km) Brightness Sun altitude
Exits shadow 23:26:24 30° 88° (E) 1,221 4.9 -24.6°
Drops below altitude 10° 23:30:04 10° 40° (NE) 2,141 6.8 -24.7°
Sets 23:32:35 0° 30° (NNE) 3,062 7.9 -24.8°
